Regional Weather Roundup
Issued by NWS State College, PA

Home | Current Version | Previous Version | Graphics & Text | Print | Product List | Glossary On
Versions: 1 2 3 4 5 6 7 8 9 10 11 12 13 14 15 16 17 18 19 20 21 22 23 24 25 26 27 28 29 30 31 32 33 34 35 36 37 38 39 40 41 42 43 44 45 46 47 48 49 50
000
ASUS41 KCTP 300010
RWRCTP

REGIONAL WEATHER ROUNDUP
NATIONAL WEATHER SERVICE STATE COLLEGE PA
700 PM EST THU JAN 29 2015

Note: "fair" indicates few or no clouds below 12,000 feet with no
significant weather and/or obstructions to visibility.

* = STATION THAT DOES NOT REPORT PRECIPITATION /E.G. RAIN...SNOW...ETC/
    THUNDER OR FOG.

PAZ002>004-007>009-013>016-020>023-029>032-300100-
WESTERN PENNSYLVANIA

CITY           SKY/WX    TMP DP  RH WIND       PRES   REMARKS
ERIE           LGT SNOW  34  30  85 W14G21    29.78R FOG
MEADVILLE      LGT SNOW  33  31  92 VRB7      29.75R VSB 3/4
FRANKLIN*      CLOUDY    34  30  86 SW10G17   29.77R
NEW CASTLE     LGT RAIN  36  35  96 S6        29.80R FOG
BEAVER COUNTY  LGT RAIN  37  36  93 SW12G17   29.79R
BUTLER*        CLOUDY    36  34  93 S8        29.80S
PITTSBURGH INT LGT RAIN  38  37  97 SW9       29.80R FOG
PITTSBURGH     LGT RAIN  37  33  85 S9        29.81R FOG
INDIANA*       CLOUDY    36  36 100 SW5       29.83F FOG
LATROBE        CLOUDY    39  39 100 SW16      29.83F
WASHINGTON CO* CLOUDY    39  37  93 SW13      29.83R
$$

PAZ004>006-010>012-017>019-024>028-033>037-041-042-045-046-049>053-300100-
CENTRAL PENNSYLVANIA

CITY           SKY/WX    TMP DP  RH WIND       PRES   REMARKS
BRADFORD       FRZ RAIN  26  23  88 S6        29.73S FOG
DUBOIS         CLOUDY    31  30  96 S6        29.76F FOG
CLEARFIELD     FRZ RAIN  25  23  92 NE5       29.83F FOG
JOHNSTOWN      MIX PCPN  29  26  89 S10       29.79F FOG
ALTOONA        LGT SNOW  26  23  88 SW7       29.88F FOG
STATE COLLEGE  FLURRIES  25  23  93 SW3       29.90F
WILLIAMSPORT   FLURRIES  26  20  77 E8G23     29.96F
SELINSGROVE    CLOUDY    26  22  84 S9        30.00F FOG
FT INDIANTOWN  LGT SNOW  25  23  93 NE1       30.04F FOG
CAPITAL CITY   CLOUDY    27  24  89 E7        30.04F
HARRISBURG     FRZ DRZL  26  24  92 SE9       30.03F FOG
YORK           CLOUDY    28  24  85 SE7       30.02F
$$

PAZ038>040-043-044-047-048-054-055-060>062-067>071-300100-
EASTERN PENNSYLVANIA

CITY           SKY/WX    TMP DP  RH WIND       PRES   REMARKS
SCRANTON       LGT SNOW  24  18  77 SW8       29.97S VSB 1
MOUNT POCONO   CLOUDY    22   6  50 S12       29.95S WCI  10
ALLENTOWN      CLOUDY    31  11  43 S5        30.07R
QUAKERTOWN*    CLOUDY    30  14  51 SW7       30.08R
READING        LGT SNOW  27  22  81 SE6       30.06F
LANCASTER      LGT SNOW  26  23  88 SE8       30.05F FOG
COATESVILLE    LGT SNOW  28  27  93 S6        30.07S
POTTSTOWN      CLOUDY    31  13  47 SW5       30.10R
BLUE BELL      CLOUDY    34  14  44 CALM      30.08R
DOYLESTOWN     CLOUDY    29  14  53 CALM      30.05F
WILLOW GROVE   NOT AVBL
NORTH PHILA    CLOUDY    34  17  50 S8        30.11F
PHILADELPHIA   CLOUDY    34  18  52 S8        30.11S
$$



USA.gov is the U.S. government's official web portal to all federal, state and local government web resources and services.